Weather History for Charlotte, NC

Change the Weather History Date:

Thursday, April 24, 2014

  Actual Average Record
Temperature  
Mean Temperature 62 °F 62 °F  
Max Temperature 73 °F 74 °F 96 °F (1925)
Min Temperature 50 °F 49 °F 36 °F (1893)
Degree Days  
Heating Degree Days 3 5  
Month to date heating degree days 142 174  
Since 1 July heating degree days 3359 3306  
Cooling Degree Days 0 2  
Month to date cooling degree days 22 24  
Year to date cooling degree days 23 29  
Growing Degree Days 12 (Base 50)    
Moisture  
Dew Point 36 °F    
Average Humidity 45    
Maximum Humidity 60    
Minimum Humidity 29    
Precipitation  
Precipitation 0.00 in 0.10 in 2.33 in (1937)
Month to date precipitation 6.43 2.46  
Year to date precipitation 17.83 13.20  
Snow  
Snow 0.00 in 0.00 in 0.00 in ()
Month to date snowfall 0.0 0.0  
Since 1 July snowfall 9.3 4.3  
Snow Depth 0.00 in    
Sea Level Pressure  
Sea Level Pressure 30.03 in    
Wind  
Wind Speed 6 mph (ESE)    
Max Wind Speed 13 mph    
Max Gust Speed 18 mph    
Visibility 10 miles    
Events      
T = Trace of Precipitation, MM = Missing Value Source: NWS Daily Summary

Daily Weather History Graph

Daily Weather History Graph

Search for Another Location

Airport:

Trip Planner

Search our weather history database for the weather conditions in past years. The results will help you decide how hot, cold, wet, or windy it might be!

Date:

Astronomy

Apr. 24, 2014 Rise Set
Actual Time 6:40 AM EDT 8:03 PM EDT
Civil Twilight 6:13 AM EDT 8:30 PM EDT
Nautical Twilight 5:41 AM EDT 9:02 PM EDT
Astronomical Twilight 5:08 AM EDT 9:36 PM EDT
Moon 3:39 AM EDT (4/24) 3:28 PM EDT (4/24)
Length of Visible Light 14h 16m
Length of Day
13h 23m
Waning Crescent, 24% of the Moon is Illuminated
Apr 24
Waning Crescent
Apr 29
New
May 6
First Quarter
May 14
Full
May 21
Last Quarter

Hourly Weather History & Observations

Time (EDT) Temp. Dew Point Humidity Pressure Visibility Wind Dir Wind Speed Gust Speed Precip Events Conditions
12:52 AM 57.9 °F 28.0 °F 32% 29.99 in 10.0 mi ENE 8.1 mph - N/A   Clear
1:52 AM 55.9 °F 28.9 °F 36% 29.99 in 10.0 mi NE 6.9 mph - N/A   Clear
2:52 AM 55.0 °F 30.0 °F 38% 29.99 in 10.0 mi East 5.8 mph - N/A   Clear
3:52 AM 54.0 °F 30.0 °F 40% 30.01 in 10.0 mi East 5.8 mph - N/A   Clear
4:52 AM 52.0 °F 30.9 °F 45% 30.03 in 10.0 mi ENE 5.8 mph - N/A   Clear
5:52 AM 51.1 °F 30.9 °F 46% 30.04 in 10.0 mi ENE 6.9 mph - N/A   Clear
6:52 AM 51.1 °F 32.0 °F 48% 30.08 in 10.0 mi ENE 5.8 mph - N/A   Partly Cloudy
7:52 AM 53.1 °F 33.1 °F 47% 30.11 in 10.0 mi East 6.9 mph - N/A   Partly Cloudy
8:52 AM 57.0 °F 33.1 °F 40% 30.13 in 10.0 mi ESE 9.2 mph - N/A   Partly Cloudy
9:52 AM 59.0 °F 33.1 °F 38% 30.14 in 10.0 mi Variable 5.8 mph - N/A   Partly Cloudy
10:52 AM 62.1 °F 34.0 °F 35% 30.14 in 10.0 mi Variable 5.8 mph - N/A   Clear
11:52 AM 64.0 °F 35.1 °F 34% 30.13 in 10.0 mi Variable 6.9 mph - N/A   Clear
12:52 PM 66.9 °F 36.0 °F 32% 30.10 in 10.0 mi SE 3.5 mph - N/A   Clear
1:52 PM 69.1 °F 37.9 °F 32% 30.06 in 10.0 mi Variable 4.6 mph - N/A   Partly Cloudy
2:52 PM 71.1 °F 39.0 °F 31% 30.03 in 10.0 mi SE 11.5 mph 17.3 mph N/A   Partly Cloudy
3:52 PM 71.1 °F 37.9 °F 30% 30.00 in 10.0 mi Calm Calm - N/A   Partly Cloudy
4:52 PM 73.0 °F 41.0 °F 31% 29.99 in 10.0 mi SW 5.8 mph - N/A   Scattered Clouds
5:52 PM 73.0 °F 39.9 °F 30% 29.98 in 10.0 mi South 10.4 mph - N/A   Scattered Clouds
6:52 PM 71.1 °F 39.9 °F 32% 29.98 in 10.0 mi SW 6.9 mph - N/A   Scattered Clouds
7:52 PM 69.1 °F 43.0 °F 39% 29.97 in 10.0 mi Calm Calm - N/A   Partly Cloudy
8:52 PM 64.0 °F 43.0 °F 46% 29.97 in 10.0 mi SE 6.9 mph - N/A   Partly Cloudy
9:52 PM 63.0 °F 44.1 °F 50% 29.97 in 10.0 mi SE 6.9 mph - N/A   Partly Cloudy
10:52 PM 63.0 °F 44.1 °F 50% 29.98 in 10.0 mi SSE 4.6 mph - N/A   Partly Cloudy
11:52 PM 60.1 °F 46.0 °F 60% 29.97 in 10.0 mi SSE 9.2 mph - N/A   Mostly Cloudy